This demonstration page uses our WeatherBlox Daily Observations layout. Learn more.

Left ArrowRight Arrow

Hourly Observations for March 8, 2020

Temp ( °F °C ) Dew Point ( °F °C ) Humidity (%) Winds ( mph kmh ) Pressure ( in mb ) Visibility ( mi km ) Precip ( " mm )
12:53 am 00:53 Cloudy 46 7.8 43 6.1 89 89 Calm 29.95 1014 10 16 0.00 0.00
1:53 am 01:53 Cloudy 46 7.8 43 6.1 89 89 WNW 3 6 29.96 1014 10 16 0.00 0.00
3:21 am 03:21 Cloudy with Light Rain 46 7.8 44 6.7 93 93 W 3 6 29.96 1015 6 10 0.03 0.76
3:53 am 03:53 Cloudy with Light Rain 46 7.8 44 6.7 93 93 E 5 7 29.95 1014 7 11 0.06 1.52
4:53 am 04:53 Cloudy 46 7.8 43 6.1 89 89 NNW 3 6 29.94 1014 10 16 0.00 0.00
5:53 am 05:53 Cloudy 47 8.3 44 6.7 90 90 N 5 7 29.94 1014 10 16 0.00 0.00
6:53 am 06:53 Cloudy 47 8.3 44 6.7 90 90 N 3 6 29.96 1015 10 16 0.00 0.00
7:20 am 07:20 Mostly Cloudy 46 7.8 44 6.7 93 93 NNW 3 6 29.98 1015 10 16 0.00 0.00
7:53 am 07:53 Mostly Cloudy 46 7.8 44 6.7 93 93 Calm 29.96 1015 10 16 0.00 0.00
8:22 am 08:22 Mostly Cloudy 47 8.3 44 6.7 90 90 Calm 29.99 1016 10 16 0.00 0.00
8:53 am 08:53 Mostly Cloudy 47 8.3 44 6.7 90 90 N 5 7 29.98 1015 10 16 0.00 0.00
9:53 am 09:53 Cloudy 48 8.9 43 6.1 83 83 N 6 9 29.99 1016 10 16 0.00 0.00
10:50 am 10:50 Cloudy 48 9 45 7 87 87 Calm 30.01 1016 10 16 0.01 0.25
10:53 am 10:53 Cloudy 49 9.4 44 6.7 83 83 Calm 30.00 1016 10 16 0.01 0.25
11:23 am 11:23 Cloudy with Rain 48 8.9 45 7.2 89 89 Calm 30.02 1017 3 4 0.04 1.02
11:31 am 11:31 Cloudy with Rain 48 8.9 45 7.2 89 89 Calm 30.02 1017 6 10 0.07 1.78
11:53 am 11:53 Cloudy with Mist and Fog 49 9.4 46 7.8 90 90 Calm 30.01 1016 6 10 0.08 2.03
12:05 pm 12:05 Cloudy 50 10 44 6.7 80 80 Calm 30.03 1017 10 16 0.00 0.00
12:53 pm 12:53 Cloudy 52 11.1 44 6.7 75 75 Calm 30.01 1016 10 16 0.00 0.00
1:53 pm 13:53 Partly Cloudy 53 11.7 43 6.1 69 69 Calm 29.99 1016 10 16 0.00 0.00
2:53 pm 14:53 Partly Cloudy 55 12.8 43 6.1 64 64 Calm 29.96 1015 10 16 0.00 0.00
3:53 pm 15:53 Sunny 56 13.3 41 5 57 57 Calm 29.95 1014 10 16 0.00 0.00
4:53 pm 16:53 Cloudy 57 13.9 41 5 55 55 SE 8 13 29.94 1014 10 16 0.00 0.00
5:53 pm 17:53 Mostly Cloudy 57 13.9 42 5.6 58 58 SSE 9 15 29.95 1014 10 16 0.00 0.00
6:53 pm 18:53 Mostly Sunny 55 12.8 42 5.6 62 62 S 6 9 29.96 1015 10 16 0.00 0.00
7:53 pm 19:53 Clear 51 10.6 43 6.1 74 74 SSE 6 9 29.97 1015 10 16 0.00 0.00
8:53 pm 20:53 Cloudy 50 10 43 6.1 77 77 Calm 29.99 1016 10 16 0.00 0.00
9:53 pm 21:53 Partly Cloudy 48 8.9 42 5.6 80 80 Calm 30.01 1016 10 16 0.00 0.00
10:53 pm 22:53 Cloudy 48 8.9 44 6.7 86 86 Calm 30.03 1017 10 16 0.00 0.00
11:53 pm 23:53 Cloudy 49 9.4 44 6.7 83 83 Calm 30.04 1017 10 16 0.00 0.00

Powered by AerisWeather